Location: Baix
(44.7118°N, 4.7648°E)
Time: 23:03:08
(UTC+00:00)

Vanguard 1 - Visible Passes

Search period start: 05 December 2020 00:00
Search period end: 15 December 2020 00:00
Orbit: 650 x 3833 km, 34.2° (Epoch: 05 December)

Date Brightness Start Highest point End Pass type
(mag) Time Alt. Az. Time Alt. Az. Time Alt. Az.
05 Dec 11.3 03:50:01 28° SSE 03:50:01 28° SSE 03:56:02 10° ESE visible
05 Dec 11.8 06:03:46 10° WSW 06:09:41 37° S 06:19:34 10° ESE visible
06 Dec 11.0 04:09:54 31° S 04:10:28 31° SSE 04:17:06 10° ESE visible
06 Dec 12.0 06:24:32 10° WSW 06:30:30 33° S 06:40:16 10° SE visible
07 Dec 10.9 04:29:46 29° SSW 04:31:07 32° S 04:38:03 10° ESE visible
08 Dec 11.0 04:49:38 25° SW 04:51:49 32° S 04:58:55 10° ESE visible
09 Dec 12.4 02:56:46 13° ESE 02:56:46 13° ESE 02:57:34 10° ESE visible
09 Dec 11.3 05:09:28 19° SW 05:12:32 29° S 05:19:37 10° SE visible
10 Dec 12.0 03:16:37 17° SE 03:16:37 17° SE 03:18:29 10° ESE visible
10 Dec 11.6 05:29:19 13° WSW 05:33:18 26° S 05:40:08 10° SE visible
11 Dec 11.7 03:36:28 21° SE 03:36:28 21° SE 03:39:20 10° ESE visible
11 Dec 11.8 05:49:40 10° WSW 05:54:05 22° SSW 06:00:22 10° SSE visible
12 Dec 11.4 03:56:19 23° SSE 03:56:19 23° SSE 04:00:02 10° SE visible
12 Dec 12.0 06:10:57 10° SW 06:14:54 17° SSW 06:20:07 10° SSE visible
13 Dec 11.3 04:16:10 23° S 04:16:10 23° S 04:20:34 10° SE visible
13 Dec 12.3 06:32:56 10° SW 06:35:43 13° SSW 06:39:03 10° S visible
14 Dec 11.4 04:36:02 19° SSW 04:36:22 19° S 04:40:52 10° SSE visible
